TimePST,TemperatureF,Dew PointF,Humidity,Sea Level PressureIn,VisibilityMPH,Wind Direction,Wind SpeedMPH,Gust SpeedMPH,PrecipitationIn,Events,Conditions,WindDirDegrees,DateUTC
12:53 AM,44.6,37.4,76,30.08,8.0,Calm,Calm,-,N/A,,Clear,0,2012-12-22 08:53:00
1:53 AM,44.1,39.0,82,30.08,7.0,Calm,Calm,-,N/A,,Clear,0,2012-12-22 09:53:00
2:53 AM,43.0,37.9,82,30.08,6.0,Calm,Calm,-,N/A,,Haze,0,2012-12-22 10:53:00
3:53 AM,44.6,39.2,81,30.08,7.0,Calm,Calm,-,N/A,,Clear,0,2012-12-22 11:53:00
4:53 AM,43.0,37.9,82,30.09,7.0,Calm,Calm,-,N/A,,Clear,0,2012-12-22 12:53:00
5:53 AM,43.0,37.9,82,30.10,7.0,Calm,Calm,-,N/A,,Clear,0,2012-12-22 13:53:00
6:53 AM,43.0,37.9,82,30.12,7.0,Calm,Calm,-,N/A,,Clear,0,2012-12-22 14:53:00
7:53 AM,44.1,37.0,76,30.13,7.0,Calm,Calm,-,N/A,,Clear,0,2012-12-22 15:53:00
8:53 AM,48.9,39.9,71,30.15,8.0,Calm,Calm,-,N/A,,Clear,0,2012-12-22 16:53:00
9:53 AM,54.0,42.1,64,30.17,8.0,Calm,Calm,-,N/A,,Clear,0,2012-12-22 17:53:00
10:53 AM,59.0,43.0,55,30.17,10.0,Calm,Calm,-,N/A,,Clear,0,2012-12-22 18:53:00
11:53 AM,60.1,45.0,57,30.15,10.0,SSW,8.1,-,N/A,,Clear,200,2012-12-22 19:53:00
12:53 PM,60.1,46.0,60,30.13,10.0,SSW,5.8,-,N/A,,Clear,200,2012-12-22 20:53:00
1:53 PM,60.1,46.0,60,30.12,10.0,South,6.9,-,N/A,,Scattered Clouds,180,2012-12-22 21:53:00
2:53 PM,60.1,46.9,62,30.12,10.0,South,5.8,-,N/A,,Scattered Clouds,190,2012-12-22 22:53:00
3:53 PM,59.0,46.9,64,30.14,10.0,SSW,6.9,-,N/A,,Overcast,200,2012-12-22 23:53:00
4:53 PM,59.0,46.9,64,30.14,10.0,South,3.5,-,N/A,,Overcast,190,2012-12-23 00:53:00
5:53 PM,59.0,46.9,64,30.15,10.0,SSW,3.5,-,N/A,,Overcast,200,2012-12-23 01:53:00
6:53 PM,59.0,46.9,64,30.17,10.0,SW,4.6,-,N/A,,Overcast,220,2012-12-23 02:53:00
7:53 PM,57.9,48.0,70,30.17,10.0,Calm,Calm,-,N/A,,Overcast,0,2012-12-23 03:53:00
8:00 PM,57.2,48.2,72,30.17,10.0,Calm,Calm,-,N/A,,Overcast,0,2012-12-23 04:00:00
8:53 PM,57.0,48.9,74,30.19,9.0,North,3.5,-,N/A,,Overcast,360,2012-12-23 04:53:00
9:00 PM,55.4,48.2,77,30.19,6.0,North,4.6,-,0.00,Rain,Light Rain,360,2012-12-23 05:00:00
9:19 PM,55.4,50.0,82,30.19,10.0,North,4.6,-,0.00,,Overcast,10,2012-12-23 05:19:00
9:44 PM,55.4,51.8,88,30.19,10.0,North,6.9,-,0.00,,Overcast,10,2012-12-23 05:44:00
9:53 PM,55.0,51.1,86,30.20,10.0,North,6.9,-,0.00,,Overcast,10,2012-12-23 05:53:00
10:26 PM,55.4,51.8,88,30.19,5.0,NE,5.8,-,0.00,Rain,Light Rain,40,2012-12-23 06:26:00
10:53 PM,55.0,51.1,86,30.19,5.0,NE,5.8,-,0.00,,Overcast,40,2012-12-23 06:53:00
11:23 PM,53.6,51.8,94,30.18,7.0,Calm,Calm,-,N/A,,Overcast,0,2012-12-23 07:23:00
11:53 PM,55.0,52.0,89,30.18,6.0,Calm,Calm,-,N/A,,Overcast,0,2012-12-23 07:53:00